GFSNGP_con_lsi_057.txt.gz
Lid_Strength_Index
13 14 15 16 16 15 15 14 16 14 14 12 11 13 12 12 14 15 16 16 16 16 17 16 16 16 16 16 17 17 17 17 17 17 17 17 18 19 19 19 19 19 19 19
14 13 14 15 15 15 14 14 14 13 14 11 12 12 13 12 13 14 15 15 15 16 16 16 16 16 16 16 17 17 17 17 17 17 18 18 19 19 19 19 19 19 19 19
17 13 14 17 14 13 14 13 13 15 12 12 11 12 11 11 13 13 13 13 14 15 15 16 16 16 16 16 17 17 17 17 18 17 18 18 18 19 19 19 19 19 19 18
17 15 21 13 10 11 12 12 12 11 11 11 11 10 10 11 12 12 12 13 13 14 14 15 15 16 16 16 17 17 17 18 17 18 18 18 18 19 19 18 18 18 18 18
17 18 15 13 13 13 13 13 10 12 11 10 10 14 11 12 11 10 12 11 12 13 13 15 15 16 17 17 17 17 17 17 17 17 17 18 18 18 18 18 18 18 17 17
16 19 20 14 13 12 10 15 10 10 10 10 11 14 10 11 13 12 12 13 13 14 15 15 16 16 17 18 18 17 17 16 16 16 17 17 17 17 17 17 17 17 17 17
16 17 16 15 17 13 16 14 17 13 10 11 12 11 14 14 14 15 15 15 15 15 16 16 17 17 18 18 17 16 16 16 16 16 16 16 16 17 17 17 17 17 17 17
15 17 19 14 15 13 13 16 16 16 15 14 14 15 15 15 15 15 16 16 16 17 17 17 17 17 17 17 16 16 16 16 16 16 15 15 15 15 15 15 16 16 17 17
13 14 10 13 12 13 14 15 15 15 15 15 15 16 16 16 16 16 16 16 16 17 17 18 18 17 17 17 15 15 15 15 15 14 14 14 15 15 15 16 16 17 18 17
13 13 13 14 15 14 15 15 16 15 15 16 16 16 16 16 16 17 19 19 19 18 19 20 19 18 18 18 17 16 16 17 17 16 17 16 15 16 17 18 18 18 18 18
14 13 13 13 14 13 14 15 15 15 15 15 15 16 16 17 19 19 19 20 19 18 19 20 20 21 21 20 18 18 19 20 20 20 19 21 20 19 18 19 16 18 18 19
14 13 12 12 11 12 14 14 14 15 15 16 16 16 16 17 18 18 19 20 19 19 19 21 21 23 23 23 21 20 21 21 21 20 21 20 20 22 16 16 14 14 15 18
10 11 13 12 12 11 13 13 14 15 15 16 17 17 17 18 18 18 19 19 19 20 21 22 23 24 25 24 22 20 20 21 22 21 22 22 23 21 21 18 13 12 11 11
12 11 12 14 13 12 12 13 15 16 16 16 17 17 18 18 19 19 21 22 21 21 23 23 24 27 27 26 23 23 24 23 24 24 23 24 23 23 22 20 20 23 15 13
15 14 13 13 14 15 16 16 16 17 18 18 18 18 17 18 20 21 22 23 23 24 25 25 26 28 28 26 24 25 24 25 25 25 25 24 24 24 25 25 25 27 26 21
18 16 15 16 17 17 17 17 17 18 18 19 19 20 20 22 24 25 26 25 24 26 29 28 29 31 31 29 27 27 26 24 25 25 26 25 24 25 25 25 26 26 26 26
20 19 20 19 19 20 21 20 20 20 21 21 22 23 24 25 27 29 30 30 30 31 31 30 32 32 32 30 27 28 27 27 26 27 27 27 27 25 25 26 26 29 28 24
23 22 22 22 20 21 23 24 24 24 25 25 25 25 25 26 29 32 34 34 31 32 33 34 36 34 31 31 29 29 28 29 28 29 27 26 28 26 27 27 27 26 27 25
26 25 25 25 25 26 27 27 28 27 27 27 27 29 30 30 31 34 35 30 30 29 31 33 22 30 29 27 29 28 28 28 28 30 28 28 29 31 30 29 29 30 28 27
27 27 27 28 29 29 29 30 29 30 30 30 30 30 32 34 36 34 35 36 38 35 37 36 32 30 29 28 26 29 29 28 28 29 29 30 30 31 29 27 29 29 30 30
29 28 29 29 31 31 32 31 30 31 31 31 30 32 34 38 38 36 31 30 33 36 34 31 31 30 30 29 28 31 31 30 30 30 31 30 30 30 29 31 30 29 31 31
31 30 31 31 31 33 34 33 32 31 31 31 32 32 31 33 33 32 36 32 33 29 32 31 30 27 28 26 30 31 31 30 30 30 31 32 30 29 30 30 31 30 30 30
33 33 32 33 33 36 34 33 33 32 31 32 31 32 31 32 32 30 30 31 33 29 30 30 27 24 23 29 30 30 30 30 29 29 29 29 27 28 28 29 29 29 30 30
33 33 34 36 33 30 32 34 33 33 33 32 32 33 32 31 30 32 31 29 28 29 29 29 26 18 21 28 30 30 30 30 29 31 30 27 31 31 32 30 29 29 29 28
32 31 31 30 30 32 32 34 31 32 32 33 33 33 34 32 31 33 34 32 26 29 29 26 20 22 31 33 32 31 31 31 31 32 31 30 29 29 28 27 27 28 28 26
31 31 31 32 32 31 31 31 32 34 35 34 34 34 34 33 32 31 31 29 30 28 30 30 31 31 31 31 31 31 29 28 27 27 28 27 27 27 26 25 25 24 24 25
30 30 30 30 31 32 33 33 33 35 37 38 36 35 34 32 31 29 29 29 29 30 30 31 30 28 30 29 29 27 27 27 25 26 26 26 26 26 25 25 25 24 23 24

GFSNGP_con_lsi_060.txt.gz
Lid_Strength_Index
13 13 15 15 16 15 15 14 17 15 15 13 12 13 12 12 13 13 14 15 16 16 16 16 16 15 15 15 16 16 16 16 16 17 17 17 18 19 19 19 19 19 19 20
15 13 13 14 14 14 14 13 13 13 14 11 12 12 14 12 11 13 14 14 14 15 16 16 16 15 15 15 16 16 16 16 16 17 17 18 18 19 19 19 19 19 20 20
17 13 14 17 14 13 14 13 13 15 13 11 11 12 11 11 12 13 12 12 13 14 15 15 15 15 15 15 16 17 17 17 18 17 17 18 18 19 19 19 19 20 20 20
17 15 21 13 11 10 12 12 12 12 11 10 10 10 10 10 11 12 12 12 13 13 14 14 15 15 15 16 17 17 17 17 18 17 18 18 19 19 19 19 19 20 20 19
18 17 15 13 13 13 13 13 10 11 10 10 9 14 11 10 11 10 10 11 11 12 13 15 15 15 16 17 17 17 17 17 17 17 17 18 19 19 19 19 19 19 19 19
16 19 21 14 15 12 11 15 10 10 10 10 11 14 11 12 13 12 13 13 13 13 15 16 17 16 17 17 18 17 17 17 17 16 17 18 18 18 18 18 19 18 18 18
16 17 16 14 16 13 16 14 16 14 11 11 13 10 13 14 14 15 15 15 15 16 16 17 17 17 18 18 18 17 17 17 17 16 17 17 17 17 18 18 18 18 18 17
15 17 19 13 14 13 12 14 15 14 14 13 13 13 14 15 15 15 16 16 17 17 18 18 18 17 18 18 18 18 18 17 17 16 16 16 16 17 17 17 18 18 18 17
13 14 10 12 13 12 13 12 13 13 13 13 14 14 15 15 16 16 17 16 17 18 18 19 19 18 19 19 18 18 17 17 16 16 16 16 16 17 17 16 16 17 17 17
13 12 11 12 13 14 14 14 14 14 14 14 15 15 15 16 16 16 19 19 19 18 19 20 20 18 18 17 16 15 16 16 16 15 15 15 15 15 15 15 16 16 16 16
13 12 12 12 13 13 13 14 15 15 14 14 15 15 15 16 18 19 19 20 19 18 19 21 20 21 20 19 17 16 17 18 16 16 15 16 18 16 16 18 15 16 16 16
13 11 11 11 13 12 13 14 14 15 15 15 15 14 15 17 17 17 18 18 18 19 20 21 21 22 22 21 19 18 20 20 19 19 20 20 20 21 16 16 14 15 15 17
12 12 13 12 12 12 13 13 14 14 14 14 15 16 16 17 18 18 18 18 19 20 21 22 24 25 25 23 20 20 20 21 21 21 20 21 21 20 20 17 14 14 14 14
12 11 11 12 11 11 11 12 13 14 14 15 15 16 17 18 19 20 21 21 21 22 23 24 25 27 27 24 22 22 22 22 22 22 22 23 22 22 20 19 19 21 13 12
14 13 12 12 13 14 14 13 14 16 17 17 17 17 17 19 21 22 22 23 23 24 25 25 26 28 28 25 23 24 23 24 24 24 25 24 24 24 23 23 22 24 23 20
17 16 14 14 15 16 15 16 16 17 18 19 19 21 22 23 25 26 26 24 22 26 27 26 28 30 29 26 27 27 26 24 26 26 27 26 25 25 26 25 26 25 26 27
18 17 15 15 16 18 18 18 17 18 20 20 22 22 23 25 26 28 30 30 30 31 32 31 33 33 32 29 29 30 29 28 27 27 28 28 28 26 26 26 27 29 29 26
21 20 20 18 18 20 22 22 22 22 23 23 23 23 25 26 28 30 31 30 29 31 32 32 33 32 31 30 30 30 29 30 29 30 29 28 29 28 28 28 29 27 27 25
25 24 23 23 23 24 26 26 27 27 27 26 27 29 30 30 31 33 32 30 30 30 33 34 23 28 28 26 29 28 28 28 29 31 30 29 30 32 30 29 30 30 29 28
26 26 26 26 27 27 27 28 29 29 31 30 30 31 33 35 37 34 33 35 38 36 38 37 32 31 31 30 28 30 29 29 29 31 31 31 31 33 31 30 31 31 32 32
27 27 26 27 28 29 29 29 29 30 31 31 30 32 34 39 38 37 32 30 33 35 34 31 31 31 31 30 29 31 31 30 31 32 33 33 32 33 31 33 32 31 31 30
27 28 28 28 29 30 30 30 30 30 30 31 32 32 31 32 31 32 35 31 33 30 32 32 32 29 30 27 31 31 32 31 33 33 34 34 34 32 32 31 30 30 31 31
30 29 29 30 31 31 31 31 32 31 31 31 31 31 31 31 31 29 30 30 33 30 32 31 26 24 26 30 32 33 32 32 31 31 32 33 32 33 32 31 31 30 31 31
30 30 30 29 29 29 31 32 31 31 31 31 31 31 30 29 29 31 30 29 28 29 30 28 23 20 27 31 32 32 32 33 32 33 33 30 34 33 33 32 31 30 30 30
30 30 29 30 30 31 31 31 30 30 30 31 32 31 31 30 29 31 32 31 26 29 30 27 22 24 33 34 34 33 33 34 34 35 33 33 32 33 32 32 31 30 30 29
30 31 31 31 31 30 29 29 30 30 29 30 31 32 32 31 30 30 31 30 31 29 31 31 32 32 32 32 33 32 30 30 29 29 30 30 30 30 30 29 28 27 27 27
29 29 29 30 30 30 30 29 29 31 32 32 33 34 33 34 33 31 31 31 31 31 32 33 31 30 32 32 31 29 29 28 27 27 28 28 28 28 27 26 26 27 26 26

GFSNGP_con_lsi_063.txt.gz
Lid_Strength_Index
12 13 14 14 15 14 14 14 16 14 14 13 12 12 11 11 12 12 12 13 14 15 15 15 15 15 14 14 14 14 14 14 14 15 15 15 17 17 18 18 18 18 18 18
15 12 12 14 14 15 14 13 13 13 13 10 10 11 12 11 10 10 12 12 12 13 15 15 15 15 14 14 14 14 14 14 14 15 16 16 17 17 18 18 19 19 19 19
17 13 14 17 14 13 13 12 13 15 12 10 11 11 11 11 11 11 11 11 11 12 13 14 15 14 15 14 14 15 14 15 15 16 16 17 17 18 18 19 19 19 19 19
16 15 21 13 10 10 11 11 11 11 10 9 9 10 10 9 10 10 11 11 11 11 12 13 14 15 14 15 15 15 15 15 16 16 17 17 18 18 18 18 19 19 19 19
17 18 15 13 13 14 13 13 10 10 10 9 9 12 10 8 10 9 9 10 11 11 11 13 14 15 15 16 16 16 16 16 16 16 17 17 18 18 18 18 19 18 18 19
16 19 20 14 12 12 11 15 10 10 10 10 11 13 10 11 12 11 12 13 13 13 13 14 15 16 16 17 17 17 16 16 16 17 17 18 17 18 18 18 18 18 18 18
16 17 15 11 13 12 16 14 16 14 10 12 12 10 11 13 12 14 14 14 14 15 15 15 16 17 17 17 17 17 17 17 17 17 17 17 17 17 17 18 18 18 19 18
15 17 19 11 12 13 10 13 13 13 13 12 12 12 12 13 13 14 14 14 15 16 17 17 17 17 18 18 18 18 18 18 18 18 17 17 18 18 17 18 18 18 18 19
14 14 10 11 10 11 12 13 13 14 13 13 14 14 13 14 14 15 15 15 17 18 18 18 19 18 18 19 18 18 18 19 18 17 17 16 17 17 17 17 18 18 18 18
13 13 12 11 10 12 12 12 12 13 13 14 14 14 14 14 15 15 18 18 19 19 20 20 20 19 19 19 19 18 17 17 17 17 16 16 16 16 16 16 17 17 17 16
13 11 10 9 11 11 11 12 13 14 14 14 14 14 14 16 17 17 17 18 17 18 20 21 20 20 19 18 15 15 16 16 16 15 15 15 16 15 15 15 14 14 14 14
12 11 10 10 12 12 12 12 12 14 14 15 15 14 15 16 16 17 17 18 18 19 20 21 21 22 21 18 16 16 17 17 16 16 17 17 18 19 15 15 13 13 13 14
9 10 10 10 11 11 11 13 13 14 14 15 15 14 15 16 17 17 18 18 19 20 21 22 22 23 23 20 17 18 18 19 19 19 19 19 19 19 18 16 13 14 14 14
9 10 10 9 10 12 11 12 12 13 14 14 14 15 15 17 18 19 20 21 21 22 23 24 25 26 26 22 20 21 21 21 20 21 21 21 20 20 18 17 17 17 14 14
11 10 10 11 13 13 12 12 13 14 15 16 15 16 18 19 21 22 22 22 23 24 25 25 26 27 26 23 21 21 21 22 22 22 22 22 21 21 21 21 21 22 21 18
15 16 15 14 14 14 13 14 14 16 16 17 18 20 21 22 23 25 25 24 24 27 27 27 28 29 27 24 24 24 24 24 25 25 25 25 24 24 24 23 23 23 23 24
17 17 19 18 17 16 16 16 15 17 18 19 21 21 23 24 25 27 28 29 29 30 29 29 29 28 27 26 25 26 26 26 26 27 27 27 26 25 25 24 23 24 24 24
21 19 19 19 17 17 19 20 20 20 21 20 20 21 22 23 26 27 28 28 28 29 31 29 27 27 27 27 26 26 26 27 27 27 27 26 27 26 26 26 26 26 26 25
23 22 23 23 23 22 23 23 24 24 24 23 24 27 27 27 28 28 27 28 28 28 31 31 23 28 26 24 27 27 27 27 28 30 29 29 29 30 29 28 28 28 27 25
25 24 25 26 26 26 26 26 27 28 29 27 28 29 31 33 32 31 32 34 35 33 34 33 32 30 30 29 27 29 29 29 29 31 31 30 30 30 29 30 29 29 29 28
26 26 26 26 27 27 28 26 27 29 29 28 29 31 33 35 35 36 31 31 32 36 35 32 31 30 30 30 30 31 31 30 31 31 33 32 32 32 30 32 32 29 30 30
26 26 27 27 28 29 28 27 28 28 28 30 30 30 30 31 31 32 33 31 33 30 32 31 31 30 30 28 30 31 32 31 33 33 34 35 34 32 32 31 31 30 30 30
29 28 28 29 29 30 29 29 29 28 29 29 30 30 30 30 30 28 29 29 30 29 30 31 25 24 27 30 32 33 33 33 32 32 33 34 32 33 31 30 30 30 31 30
29 29 29 28 27 28 30 30 29 29 29 29 30 30 27 28 29 30 28 27 27 28 28 26 23 22 28 33 33 33 33 34 33 34 33 31 34 33 33 32 31 30 30 30
29 28 28 28 29 30 29 28 28 28 29 30 30 29 29 28 27 30 29 29 26 29 30 28 24 26 34 36 35 34 34 35 36 36 35 34 33 33 32 32 31 30 30 30
30 30 30 30 29 28 28 28 29 29 28 30 31 31 30 30 29 30 30 30 31 30 32 32 34 34 34 34 34 34 32 31 30 30 31 31 31 31 30 29 29 28 28 27
29 28 29 29 29 29 29 28 29 30 30 30 32 33 32 32 32 32 32 32 32 32 34 36 33 32 34 33 33 31 31 31 29 29 32 30 30 30 28 27 26 26 26 26

GFSNGP_con_lsi_069.txt.gz
Lid_Strength_Index
12 11 11 11 11 11 12 12 14 13 12 10 9 8 7 7 6 7 6 6 6 6 5 5 6 7 7 7 7 7 7 8 8 8 8 8 9 10 12 13 15 15 16 16
14 11 11 13 12 11 11 11 11 10 11 7 7 6 7 6 6 6 6 6 6 5 5 6 6 7 7 7 8 7 8 8 8 9 10 11 12 13 14 15 16 16 17 17
17 12 13 16 13 12 11 10 10 13 9 7 7 7 7 6 5 6 6 6 6 5 5 5 6 7 7 7 8 8 9 10 11 11 12 13 14 15 15 16 16 17 17 17
16 14 20 12 8 9 10 10 9 9 8 7 7 6 5 5 5 5 5 5 5 5 5 5 6 6 7 8 9 10 11 11 12 12 13 13 14 15 15 15 16 17 17 17
16 17 14 12 10 10 11 11 7 9 8 7 6 6 6 4 4 5 5 5 7 7 8 8 8 8 10 11 11 11 12 12 12 12 13 14 14 15 15 15 16 16 16 17
14 18 19 12 9 8 8 14 9 9 9 9 7 11 8 6 7 7 7 8 9 9 9 10 10 12 12 12 12 12 12 12 12 13 13 14 14 15 15 15 16 16 16 16
15 17 14 9 8 7 15 13 10 10 10 9 10 8 8 7 7 7 8 10 10 11 12 13 13 13 13 13 14 13 13 14 14 13 14 13 14 14 15 16 17 17 17 17
14 16 18 7 8 13 10 8 9 9 9 10 9 10 9 9 9 10 10 11 12 13 14 14 14 14 14 14 14 14 14 14 14 14 14 14 14 15 15 16 17 18 18 18
12 12 8 7 7 6 6 8 8 9 8 9 10 11 10 10 11 11 12 13 14 15 15 15 15 15 14 15 15 15 15 15 14 14 14 14 15 15 16 16 17 18 18 18
10 9 8 7 7 6 7 7 7 8 8 9 10 10 11 12 12 13 13 14 14 15 16 17 16 15 15 15 15 15 15 15 15 15 14 14 14 14 15 15 16 17 17 17
10 9 7 6 6 5 5 6 7 8 9 10 10 11 11 11 12 13 14 14 15 16 17 17 16 16 15 14 14 14 15 14 14 13 14 14 14 14 14 14 14 15 15 15
11 7 7 7 5 5 6 5 6 8 9 10 11 11 11 12 13 13 14 15 16 17 17 18 17 17 16 15 14 14 14 14 13 13 13 13 14 14 12 13 13 13 13 13
7 5 5 5 4 4 5 5 6 8 10 11 11 12 12 13 14 15 15 16 16 17 17 17 17 18 18 15 13 12 13 13 13 14 14 14 14 14 17 15 13 13 12 12
4 5 6 6 6 4 5 5 7 8 9 10 12 13 13 14 15 15 16 17 17 18 19 18 19 20 18 15 13 14 13 13 13 13 14 14 14 14 15 15 16 16 15 15
6 5 5 5 7 7 8 8 8 8 8 9 11 12 13 15 16 17 19 19 19 20 21 19 20 22 20 17 16 15 15 15 15 15 15 15 15 14 14 15 16 16 16 15
12 9 9 9 9 9 9 9 9 8 9 10 12 13 14 16 17 19 20 19 17 21 22 22 22 23 21 19 17 17 18 18 16 16 16 16 16 16 16 15 15 15 14 16
15 12 15 13 13 12 11 11 11 11 10 12 13 16 17 19 19 21 22 22 22 23 22 23 23 23 21 19 18 18 18 18 18 18 18 17 17 17 17 16 16 16 20 18
19 18 17 17 16 16 14 14 15 15 14 14 16 17 19 18 20 22 23 23 24 25 26 24 22 21 22 21 19 19 19 20 20 20 20 20 19 19 18 19 18 19 20 18
20 20 19 19 19 19 18 18 18 18 18 17 17 19 20 21 21 22 21 22 23 25 28 25 21 23 23 20 19 19 19 20 21 21 20 20 20 20 20 19 19 19 19 19
21 21 21 21 22 22 21 21 21 21 21 20 21 22 24 25 25 26 27 30 30 28 26 25 23 24 24 23 21 21 21 21 22 23 22 22 21 21 21 23 21 21 21 21
23 22 23 23 24 23 24 23 22 23 24 22 22 24 26 25 24 23 24 27 27 26 24 24 24 24 24 23 22 22 22 23 23 23 22 22 21 21 22 22 22 22 22 22
24 24 25 24 25 25 25 24 23 24 24 25 25 25 25 26 26 26 25 25 24 23 22 23 23 24 24 22 22 22 22 22 22 22 22 22 22 22 22 22 23 22 22 23
25 25 25 25 25 26 26 26 25 25 25 25 25 25 25 25 23 24 26 23 22 22 21 21 22 22 23 23 22 22 22 22 22 22 22 23 23 23 23 23 23 23 24 24
25 25 25 24 24 25 27 26 26 26 27 26 27 26 24 26 26 24 24 24 24 23 23 22 22 22 23 23 23 23 23 23 23 23 24 25 24 25 25 25 25 24 24 25
25 25 25 25 26 26 26 26 26 27 28 28 28 27 26 26 26 26 25 25 24 24 25 24 23 24 24 25 25 25 25 24 25 26 25 25 26 26 26 25 26 25 25 25
26 27 27 26 25 25 25 25 27 26 27 29 29 28 27 27 26 26 26 26 26 26 26 26 26 26 26 26 26 26 26 25 25 25 26 26 26 26 26 25 25 25 25 25
26 25 26 27 27 27 26 26 27 28 28 28 29 29 28 28 28 28 27 27 27 27 27 27 27 27 28 28 27 27 27 27 27 27 27 27 27 27 26 26 26 25 25 25

GFSNGP_con_lsi_072.txt.gz
Lid_Strength_Index
12 12 12 12 13 12 14 13 15 14 13 12 10 10 9 8 9 9 9 9 9 9 8 8 8 9 9 9 9 8 9 8 8 8 9 9 11 12 14 15 15 16 16 16
16 13 12 14 12 12 12 12 12 12 12 9 8 8 8 8 8 8 8 8 8 8 8 8 8 8 8 9 9 9 8 9 9 11 11 12 12 13 14 15 16 16 17 17
17 13 14 16 13 12 12 10 11 14 10 8 8 8 8 8 8 7 7 7 7 7 7 7 8 8 8 9 9 11 11 12 13 13 13 13 14 14 15 16 17 17 17 17
17 16 20 13 9 9 11 10 9 9 9 8 8 7 7 6 7 7 7 7 8 8 8 8 9 9 10 11 12 12 13 14 15 14 14 15 15 15 16 16 17 17 17 17
20 21 15 13 12 12 12 13 9 10 9 9 8 8 8 7 7 8 8 8 9 9 10 10 10 12 14 14 13 13 13 13 14 15 15 15 16 16 17 17 17 16 16 17
19 20 23 13 10 8 8 14 10 10 10 10 10 13 10 9 9 9 9 10 11 11 11 12 14 15 15 14 15 14 14 14 14 15 16 16 16 17 17 17 16 16 16 15
15 16 14 10 10 9 16 14 11 11 10 9 11 9 8 8 9 10 10 11 12 13 13 14 15 15 15 15 16 15 16 16 16 16 17 17 18 18 17 16 16 16 16 16
14 16 18 8 11 13 10 11 10 10 8 9 7 7 8 8 10 11 12 12 13 15 14 15 15 15 16 16 16 17 17 17 18 19 17 17 16 15 16 16 16 17 17 17
14 15 9 8 10 8 7 8 9 8 9 8 8 8 9 9 11 12 13 13 14 16 16 16 17 16 16 16 16 16 17 19 19 19 18 18 18 16 16 16 16 17 17 17
13 11 10 9 8 8 7 6 7 8 8 8 9 10 10 11 12 13 15 15 16 16 17 18 17 16 17 16 17 16 16 17 18 18 18 17 17 17 17 16 16 16 17 17
13 10 10 9 8 7 6 7 7 7 7 8 9 10 11 12 12 13 14 15 16 17 17 17 17 17 15 16 16 16 16 15 15 15 15 16 16 17 17 17 15 16 15 15
13 10 9 9 8 7 7 7 7 7 8 8 8 9 11 12 12 14 15 16 17 18 18 18 18 19 19 16 17 17 16 14 14 13 15 17 17 14 12 12 11 11 11 13
9 7 7 7 7 7 7 7 7 7 8 9 9 10 12 12 12 13 15 17 18 19 19 18 19 19 19 17 13 13 13 14 14 15 16 15 15 15 16 13 11 10 10 11
8 8 9 8 8 8 7 7 8 10 11 10 11 13 13 14 16 17 15 17 17 19 20 20 19 20 20 18 15 13 13 13 13 14 14 14 15 16 16 16 17 17 13 13
11 12 11 10 9 10 10 10 12 11 10 9 12 12 11 11 13 16 16 17 17 20 21 21 22 23 22 18 17 16 15 15 15 15 14 14 14 14 15 16 17 17 17 16
16 14 14 14 13 13 13 13 13 12 11 9 9 12 13 15 16 18 19 19 17 21 21 21 22 22 21 19 17 17 17 16 16 16 16 16 16 16 17 17 17 17 19 19
18 16 18 19 17 16 16 15 15 14 15 14 13 14 16 17 19 20 21 21 22 22 22 21 21 21 20 18 17 17 18 18 18 18 18 18 18 18 18 18 20 21 21 18
21 19 19 19 19 19 19 19 18 19 19 17 18 18 21 19 19 21 22 22 23 24 24 23 21 21 20 19 18 18 19 20 20 21 20 20 20 20 20 20 20 22 22 20
23 22 21 20 21 22 22 21 22 21 22 20 21 22 23 22 22 21 21 23 23 25 26 23 19 22 22 19 19 19 20 21 21 21 21 21 22 23 22 22 23 24 25 24
25 24 24 24 24 25 25 25 24 24 24 22 25 23 25 24 24 25 26 27 27 26 24 23 23 23 22 22 20 21 21 22 22 23 23 23 24 24 24 25 26 27 28 28
27 26 26 26 26 27 26 25 25 26 25 23 23 23 25 24 23 23 24 26 25 23 22 23 24 23 22 22 22 23 23 23 24 25 25 26 25 26 27 28 29 27 29 28
30 29 28 29 28 28 27 26 24 24 24 24 24 24 25 26 25 25 24 25 23 21 22 23 23 22 22 22 23 23 23 24 24 24 25 25 25 25 27 28 28 28 29 30
31 30 28 30 29 29 28 26 26 25 25 25 25 26 26 26 24 24 26 24 22 22 22 22 22 22 23 23 24 24 24 24 24 24 25 25 25 27 28 29 30 30 31 31
30 31 29 27 26 26 28 27 26 26 27 27 27 27 25 26 26 24 24 24 23 24 23 23 22 22 24 25 25 25 25 25 25 26 27 25 29 30 31 31 31 31 32 31
30 29 29 27 26 26 26 26 26 27 28 28 28 27 27 26 26 26 25 25 23 24 25 24 23 24 26 26 26 26 27 27 29 30 31 32 32 33 34 34 33 33 34 33
31 31 31 28 28 25 25 25 27 27 27 29 29 28 28 27 26 26 26 26 26 26 26 26 27 27 27 27 27 28 28 28 29 31 32 33 34 33 33 32 32 31 31 32
31 28 30 29 27 27 27 27 28 29 28 28 29 29 28 28 27 27 27 27 27 27 27 28 28 27 29 31 31 30 31 31 30 31 35 34 33 33 32 31 32 32 31 30

GFSNGP_con_lsi_075.txt.gz
Lid_Strength_Index
13 12 12 13 13 13 14 14 16 13 14 12 10 10 10 10 10 9 10 9 9 9 9 9 9 9 9 9 9 9 9 9 8 8 9 9 10 11 12 13 13 14 15 15
15 13 12 14 13 13 12 12 12 12 12 8 8 8 9 9 9 9 8 8 8 8 8 9 9 9 9 9 9 9 9 9 9 10 11 11 12 12 13 14 14 15 15 16
22 15 15 19 15 13 12 11 11 14 11 9 9 9 10 9 9 10 10 10 9 9 9 9 10 10 10 10 10 11 12 12 12 12 13 12 13 13 13 14 15 15 16 16
23 21 27 16 13 12 12 11 10 10 10 10 10 10 9 9 10 10 9 9 9 9 10 10 10 11 12 13 13 12 13 14 14 14 14 14 15 14 15 15 16 16 17 17
22 27 18 15 14 13 13 13 10 10 10 10 9 10 9 9 9 9 8 8 9 10 10 11 11 13 14 14 14 13 13 13 14 15 15 15 15 16 17 18 18 18 17 18
24 22 23 16 12 8 8 15 9 9 9 10 9 12 10 8 8 8 9 9 9 11 11 13 13 15 15 14 15 14 14 14 13 15 16 16 15 17 18 17 17 16 15 15
15 16 17 12 12 9 17 15 12 11 10 10 11 9 7 7 7 8 9 10 11 12 12 13 14 15 15 15 15 15 15 15 16 16 17 17 17 15 15 15 15 16 16 16
19 17 18 10 11 12 11 11 10 10 10 10 9 8 8 7 8 9 9 10 11 13 13 13 15 16 15 15 15 16 17 16 17 19 17 16 13 14 15 15 16 16 17 17
14 15 10 9 10 9 8 10 10 10 9 8 8 8 8 8 9 10 11 11 12 14 14 14 16 16 17 17 17 17 19 20 20 19 18 18 14 15 15 16 17 17 17 17
14 13 12 11 10 9 7 8 8 8 8 8 8 9 9 9 10 11 12 14 14 15 16 16 17 17 16 16 16 19 18 18 18 19 19 19 17 17 16 16 17 17 17 17
16 12 11 10 9 8 8 7 7 8 8 7 8 8 9 10 11 12 13 15 16 15 16 18 19 18 16 14 17 18 18 16 15 17 18 17 17 20 18 18 16 17 18 18
15 11 11 10 9 9 9 8 7 8 9 9 8 8 10 11 12 13 13 14 16 17 18 20 20 19 19 15 14 18 14 14 14 15 15 15 15 14 11 11 11 11 11 13
11 9 9 9 8 9 8 8 8 8 8 9 9 10 12 12 13 13 16 17 17 18 18 16 17 18 18 17 16 13 13 14 15 15 15 15 15 14 15 13 10 9 9 10
9 11 11 10 10 9 9 9 10 11 11 11 11 13 13 12 12 13 14 15 15 16 21 20 17 17 18 17 15 13 13 14 15 14 14 14 15 16 16 16 16 15 11 10
12 13 12 12 11 13 13 12 14 13 13 13 14 11 10 10 12 14 16 16 16 18 18 22 19 20 19 17 14 14 14 14 14 14 14 14 14 15 15 16 17 17 17 15
17 16 15 15 15 16 16 16 17 15 15 15 15 14 13 14 20 19 19 21 21 22 20 20 21 20 19 17 15 14 14 14 14 14 14 14 15 15 16 17 18 19 19 19
20 18 22 22 19 19 19 18 18 18 19 19 18 17 18 20 19 20 24 25 24 26 26 23 21 20 18 17 16 16 16 16 16 17 17 17 17 17 17 19 20 20 19 16
22 21 21 21 21 21 22 22 22 23 23 22 21 19 22 22 21 25 25 26 25 26 25 23 20 20 19 17 17 17 17 18 18 19 19 19 19 19 19 20 20 21 21 19
25 24 23 22 23 24 25 25 25 24 24 24 22 23 24 24 25 25 24 26 27 27 26 23 18 20 20 17 18 18 18 19 19 20 20 20 21 21 21 22 22 23 23 24
27 26 26 25 26 27 27 27 27 26 27 26 25 26 26 25 26 24 25 29 28 27 25 23 22 22 21 21 19 20 20 21 21 22 22 22 23 24 24 24 25 27 29 29
30 29 28 28 28 29 30 29 28 28 27 25 25 26 27 25 25 23 24 25 24 23 23 22 22 22 21 21 21 21 21 22 22 23 23 24 24 25 25 26 27 26 28 27
32 32 30 31 32 32 31 31 30 27 26 25 25 25 26 24 23 23 23 24 22 21 22 22 22 21 22 21 22 22 22 23 23 24 25 26 26 26 27 26 28 28 29 30
33 32 31 32 32 32 33 32 30 28 27 26 25 25 24 24 23 24 25 24 22 22 22 21 21 22 22 23 23 23 23 24 24 25 26 26 26 27 27 26 26 28 31 31
34 33 33 32 33 33 33 32 30 29 28 27 26 25 24 26 26 24 24 23 23 24 23 23 21 21 23 24 24 24 25 25 26 26 26 25 27 27 28 29 31 32 33 33
34 33 32 32 32 32 32 31 30 27 27 27 27 27 26 25 26 26 25 25 23 25 25 24 23 23 25 26 26 26 26 26 27 28 29 30 31 32 32 33 34 35 36 35
35 34 34 34 33 31 30 28 28 27 27 28 28 28 27 27 26 26 26 26 26 26 26 26 26 26 26 27 27 27 27 28 28 29 31 33 35 35 35 35 34 33 33 33
34 31 35 34 32 30 30 28 28 28 28 28 29 28 28 28 27 27 27 27 27 27 27 27 27 27 27 28 29 29 29 30 30 31 34 34 35 35 34 33 33 33 32 32